Location: Deurze
(52.9838°N, 6.6090°E)
Time: 18:29:26
(UTC+00:00)

Meteor 1-31 Rocket - Pass Details

Date: 11 March 2026
Orbit: 456 x 472 km, 97.6° (Epoch: 20 April)

Event Time Altitude Azimuth Distance (km) Brightness Sun altitude
Exits shadow 18:01:54 - 125° (SE) 2,206 5.4 -5.6°
Reaches altitude 10° 18:03:34 10° 112° (ESE) 1,613 4.6 -5.8°
Maximum altitude 18:06:11 21° 63° (ENE) 1,114 3.9 -6.2°
Drops below altitude 10° 18:08:50 10° 13° (NNE) 1,631 5.1 -6.6°
Sets 18:11:15 0° 357° (N) 2,516 6.3 -7.0°
